星链-3451 (STARLINK-3451 )

导读

STARLINK-3451是美国SpaceX公司星链(Starlink)卫星互联网星座的一员,于2022年2月21日发射入轨。星链项目旨在通过低地球轨道(LEO)部署大规模卫星星座,为全球尤其是偏远欠发达地区提供高速低延迟宽带互联网服务。作为星座组网卫星,它承担着拓展全球网络覆盖、提升服务容量的任务,助力SpaceX完成全球卫星互联网布局,推动空天地一体化网络建设。

基本信息
目录编号:
51749
目录名称:
STARLINK-3451
国际标识:
2022-016AM
轨道中心:
EARTH
卫星名称:
星链-3451
卫星全名:
星链-3451 (STARLINK-3451 )
卫星状态:
在轨 (已飞行1657 天)
发射日期:
2022-02-21 UTC
国别 :
美国 (US)
星等 :
--
轨道信息
数据来源 国际轨道数据 AOE轨道数据
星历时间 2026-09-05T13:10:16+0800
11小时前
查看轨道信息
2026-09-03T22:00:00+0800
2天前
查看轨道信息
半长轴 6848.864km 6848.82km
偏心率 0.0001316 0.0001365
轨道倾角 53.160° 53.156°
近地点辐角 85.662° 75.002°
升交点赤经 221.964° 229.565°
平近点角 274.454° 280.352°
近地点 469.825km 469.748km
远地点 471.629km 471.618km
周期 94.013分钟 94.012分钟
每日圈数 15.317045 15.317192
详细信息
固有亮度:
5
最大亮度:
2.5
卫星平台:
Starlink v1.5
覆盖范围:
全球
运营商:
太空探索技术公司
运营商所在国:
美国
制造商(研发单位):
太空探索技术公司
制造商所在国:
美国
使用方式:
暂无
卫星简介
星链(Starlink)计划是由太空探索技术公司(SpaceX)提出的一个巨型低轨卫星互联网星座项目,计划在2019年至2024年间在太空搭建由约1.2万颗卫星组成的“星链”网络,其中1584颗将部署在地球上空550千米处的近地轨道,并从2020年开始工作。该卫星仍在工作。
2D轨道图
3D轨道图
轨道高度分析图
轨道倾角分析图
轨道综合分析图
查看轨道综合分析图
交会数据列表
事件ID 空间交会对象 最接近时刻(TCA) 交会距离 交会风险概率(CRP) 交会风险指数(CRI) 操作
CDM_260906-003905-174906-403121
2026-09-06T
00:39:20+0000
0.365 km
远距离
3.592741E-4 高风险 0.86
CDM_260906-073205-174906-771221
2026-09-06T
07:32:19+0000
2.624 km
极远距离
1.569132E-6 低风险 0.39
CDM_260905-230505-174906-403121
2026-09-05T
23:05:21+0000
2.825 km
极远距离
1.357101E-6 低风险 0.38
CDM_260907-025105-174906-781321
2026-09-07T
02:51:53+0000
2.948 km
极远距离
1.318569E-6 低风险 0.37